sat.trackr.live / text

‹ back to catalog

STARLINK-11075 [DTC]

NORAD 58706 · 2024-002B

PAYLOAD ACTIVE UNKNOWN

§ Identity

Operator
Country
US
Launch date
2024-01-03
Launch site
AFWTR
Launch vehicle
Mass (kg)
RCS (m²)

Purposes: comms

External: N2YO · Heavens-Above · Gunter

§ Orbital elements

Epoch: 2026-05-25T00:49:53.283936Z

Period
91.74 min
Inclination
53.1608°
Eccentricity
0.0000191
Mean motion
15.69719395 rev/d
Perigee alt
359.6 km
Apogee alt
359.8 km
Semi-major
6,737.8 km
B*
-3.2940e-6
RAAN
257.2675°
Arg perigee
110.6571°
Mean anomaly
249.4468°
Rev number
13,843

§ Raw data

STARLINK-11075 [DTC]1 58706U 24002B   26145.03464449 -.00000986  00000+0 -32940-5 0  99932 58706  53.1608 257.2675 0000191 110.6571 249.4468 15.69719395138438

JSON: /api/v1/satellites/58706 · /tle

For live sub-satellite position, see the globe view (requires WebGL).

§ Visibility from observer

Set your observer location to see the next 7 days of passes ≥ 10°. The values pass through the URL so the page stays shareable.

No JS? Fill the form by hand. The geolocation button needs JavaScript.